Flag for China Weather past 2 weeks in Taiyuan, Shanxi, China

Now
61 °F

Clear.


Feels Like: 61 °F
Forecast: 40 / 74 °F
Wind: 1 mph from Northeast

Location: Taiyuan Airport

Current Time: Apr 21, 2015 at 10:46:26 PM

Latest Report: Apr 21, 2015 at 10:00 PM


Visibility: 10 mi

Pressure: 30.04 "Hg

Humidity: 17%

Dew point: 16 °F

Location of TaiyuanLocation

Historic Weather in Taiyuan — Graph

°F

Taiyuan temperature yesterday

Maximum temperature yesterday: 68 °F (at 2:30 PM)
Minimum temperature yesterday: 41 °F (at 4:00 AM)
Average temperature yesterday: 55 °F

Past Weeks' High & Low Weather Summary

 TemperatureHumidityPressure
High84 °F (Apr 15, 3:30 PM)93% (Apr 9, 5:30 AM)30.42 "Hg (Apr 9, 5:30 AM)
Low32 °F (Apr 7, 6:30 AM)6% (Apr 15, 4:00 PM)29.56 "Hg (Apr 15, 3:30 PM)
Average53 °F40%30.04 "Hg
* Reported Apr 6 9:00 PM — Apr 21 9:30 PM, Taiyuan, Weather by CustomWeather, © 2015

Note: Actual official high and low records may vary slightly from our data, if they occured in-between our weather recording intervals... More about our weather records

Advertising

Taiyuan weather history for previous 24 hours

 ConditionsComfort  
Time TempWeatherWind HumidityBarometerVisibility
9:30 PM
Tue, Apr 21
61 °FClear.1 mph16%30.01 "Hg10 mi
9:00 PM63 °FClear.1 mph14%30.01 "Hg10 mi
8:30 PM63 °FClear.6 mph14%29.98 "Hg10 mi
8:00 PM66 °FClear.8 mph13%29.98 "Hg10 mi
7:30 PM68 °FClear.8 mph11%29.95 "Hg10 mi
7:00 PM70 °FPassing clouds.15 mph10%29.92 "HgN/A
6:30 PM73 °FPassing clouds.20 mph8%29.92 "HgN/A
6:00 PM73 °FPassing clouds.20 mph8%29.92 "HgN/A
5:30 PM75 °FScattered clouds.13 mph9%29.92 "HgN/A
5:00 PM75 °FPartly sunny.20 mph9%29.89 "HgN/A
4:30 PM75 °FPartly sunny.22 mph9%29.92 "HgN/A
4:00 PM77 °FPartly sunny.10 mph7%29.89 "HgN/A
3:30 PM75 °FPartly sunny.20 mph8%29.92 "HgN/A
3:00 PM77 °FScattered clouds.17 mph8%29.92 "HgN/A
2:30 PM77 °FScattered clouds.10 mph7%29.92 "HgN/A
2:00 PM75 °FScattered clouds.10 mph12%29.95 "HgN/A
1:30 PM73 °FScattered clouds.10 mph14%29.95 "HgN/A
1:00 PM73 °FScattered clouds.6 mph15%29.95 "HgN/A
12:30 PM72 °FScattered clouds.3 mph19%29.98 "HgN/A
12:00 PM70 °FScattered clouds.8 mph21%30.01 "HgN/A
11:30 AM68 °FPassing clouds.8 mph28%30.01 "HgN/A
11:00 AM66 °FPassing clouds.10 mph35%30.04 "Hg5 mi
10:30 AM64 °FClear.8 mph34%30.04 "Hg5 mi
10:00 AM61 °FClear.8 mph42%30.07 "Hg5 mi
9:30 AM59 °FClear.6 mph42%30.07 "Hg5 mi
9:00 AM57 °FClear.3 mph55%30.07 "Hg4 mi
8:30 AM55 °FClear.3 mph59%30.07 "Hg4 mi
8:00 AM54 °FClear.3 mph58%30.07 "Hg4 mi
7:30 AM50 °FHaze.3 mph71%30.07 "Hg3 mi
7:00 AM48 °FHaze.1 mph76%30.07 "Hg3 mi
6:30 AM45 °FHaze.3 mph76%30.04 "Hg3 mi
6:00 AM45 °FHaze.3 mph76%30.04 "Hg2 mi
5:30 AM45 °FHaze.3 mph76%30.04 "Hg3 mi
5:00 AM45 °FClear.1 mph76%30.01 "Hg4 mi
4:30 AM46 °FClear.3 mph71%30.01 "Hg4 mi
4:00 AM46 °FClear.1 mph71%30.01 "Hg5 mi
3:30 AM48 °FClear.3 mph66%30.01 "Hg5 mi
3:00 AM48 °FClear.3 mph66%30.01 "Hg5 mi
2:30 AM48 °FClear.1 mph66%30.01 "Hg5 mi
2:00 AM48 °FClear.1 mph66%30.01 "Hg10 mi
1:30 AM50 °FClear.3 mph62%30.01 "Hg10 mi
1:00 AM50 °FClear.1 mph62%30.01 "Hg10 mi
12:30 AM52 °FClear.3 mph58%30.01 "Hg10 mi
12:00 AM54 °FPassing clouds.3 mph54%29.98 "HgN/A
11:30 PM
Mon, Apr 20
54 °FClear.3 mph54%29.98 "Hg10 mi
11:00 PM55 °FClear.3 mph51%29.98 "Hg10 mi
10:30 PM57 °FClear.3 mph48%29.98 "Hg10 mi
10:00 PM57 °FClear.8 mph48%29.98 "Hg10 mi
Weather by CustomWeather, © 2015

See weather overviewHow to use our weather pages